Location: G�yn�k
(36.6721°N, 30.5542°E)
Time: 08:20:03
(UTC+00:00)

Cosmos 1346 Rocket - Pass Details

Date: 07 June 2020
Orbit: 531 x 548 km, 81.2° (Epoch: 05 July)

Event Time Altitude Azimuth Distance (km) Brightness Sun altitude
Exits shadow 02:00:22 - 188° (S) 2,714 5.9 -7.4°
Rises 02:00:25 0° 188° (S) 2,696 5.9 -7.4°
Reaches altitude 10° 02:02:34 10° 189° (S) 1,805 5.0 -7.0°
Maximum altitude 02:06:33 85° 275° (W) 550 2.8 -6.3°
Drops below altitude 10° 02:10:33 10° 8° (N) 1,809 6.1 -5.7°
Sets 02:12:42 0° 8° (N) 2,702 7.0 -5.3°
